目前日期文章:201304 (100)

瀏覽方式: 標題列表 簡短摘要
發表時間 文章標題 人氣 留言
2013-04-30 【Joli-neon】荷葉邊露背束腰雪紡吊帶洋裝(粉色)dl (0) (0)
2013-04-30 【圓媛嚴選】華麗宮廷蕾絲層次荷葉拉練雪紡洋裝 (共一色)uw (0) (0)
2013-04-30 [ROXY] ADMIRAL 2 包包 (粉紅色)fi (13) (0)
2013-04-30 【棉花甜】名媛緞面多層蕾絲丁字褲(粉)aa (0) (0)
2013-04-30 【OrangeBear】植絨小星星造型磨毛內搭褲‧共三色ba (0) (0)
2013-04-28 San-X 小襪貓iPhone5手機殼。鋼琴鍵盤(CT34701)nu (0) (0)
2013-04-28 HAPPYMORI SAMSUNG GALAXY NOTE 2 騎士格紋 書本式皮套zw (0) (0)
2013-04-28 MOTOROLA BC50 高容量防爆鋰電池yq (0) (0)
2013-04-28 OLYMPUS PENPAL PP-1 藍芽分享器(公司貨)ba (0) (0)
2013-04-28 電池王 For SHARP SH630E 高容量鋰電池uc (0) (0)
2013-04-26 晟洸菓子 南瓜乳酪蛋糕中顆(1200g)xj (0) (0)
2013-04-26 《UDR》專利植物性-六合一葡萄糖胺複合錠(90粒x6入組)jv (0) (0)
2013-04-26 【美人計】燕窩雪蛤飲特惠組(燕窩雪蛤露6瓶-盒x2+冰糖燕窩x3瓶)i (0) (0)
2013-04-26 RT烘焙 福圓糕桂圓核桃蛋糕3盒(5入-盒)vv (0) (0)
2013-04-26 【金藏手感茶】台灣特級杉林溪手採專業高山春茶(4兩裸包裝)(PU)x (0) (0)
2013-04-25 【LEGO樂高】Friends系列/L3065 奧麗薇亞的樹屋ka (0) (0)
2013-04-25 塔吉特千層專賣-貝里斯牛奶千層蛋糕ag (0) (0)
2013-04-25 憶霖 8佳醬-黑胡椒醬(400g)ar (0) (0)
2013-04-25 【ZARATA】韓國‧甜蜜貓飛行系列零錢卡片套_Orangets (0) (0)
2013-04-25 【太田胃散】DNJ速纖順暢桑葉錠(180錠)ua (0) (0)
2013-04-23 【鍵盤防護大師】 ACER Aspire 4810T 超鍵盤矽柔保護膜cn (0) (0)
2013-04-23 《沖繩》自然海鹽(500g-包)pq (4) (0)
2013-04-23 【2 歡樂熊】韓版經典格子學院風套裝gy (0) (0)
2013-04-23 里昂烘培坊 精緻奶凍球x1盒(8入-盒)+雪藏銅鑼燒x1盒(8入-盒)ma (0) (0)
2013-04-23 Body Temple 100%玫瑰純露100mlua (15) (0)
2013-04-22 【虹喬】耶加雪夫咖啡us (0) (0)
2013-04-22 【Chic Baby Rose】超可愛手工蕾絲連身裝(淡藍)6m-2Ywi (0) (0)
2013-04-22 【日本小豬襪】階段式著壓按摩美腿襪(膚色)fu (0) (0)
2013-04-22 【Bone】Deer Driver 聖誕麋鹿隨身碟8Gpc (0) (0)
2013-04-22 台糖 調味里肌豬排 5包(300g-包)cx (0) (0)
2013-04-20 Classico 義大利麵醬-四種起司(680g)bh (0) (0)
2013-04-20 【O.B】 黑英國心斜拼接T恤-共二色kg (0) (0)
2013-04-20 【雅方 桂冠】edayfood雅方綜合超值火鍋組(共12入)wc (0) (0)
2013-04-20 【burner倍熱】輕食粥孅卡4口味綜合組rz (0) (0)
2013-04-20 【鮮果日誌】日本空運青森蜜蘋果(原箱32入)nd (0) (0)
2013-04-19 【蕾媽媽】紅燒羊肉爐 (1000gX4入)tl (0) (0)
2013-04-19 魚池鄉 香山紅茶(香茶巷40號-盒裝袋茶16入)10盒bp (0) (0)
2013-04-19 醒茶莊 台灣茗品-日月潭紅茶(袋茶)2盒il (0) (0)
2013-04-19 幸福小胖 嚴選尊貴級草蝦2盒(8尾-盒)ll (0) (0)
2013-04-19 《3點1刻》元氣100 燕麥薏仁露 (15入- 袋)rh (0) (0)
2013-04-18 美國瑪莉莎 Melissa & Doug 花仙子服遊戲組_0bs (0) (0)
2013-04-18 House 佛蒙特咖哩-辣味(238g-盒)co (26) (0)
2013-04-18 慕里諾 繽紛夏日綜合口味-5入組(香草.牛奶.檸檬.草莓.奇異果)dk (0) (0)
2013-04-18 【三鳳肉乾】超值杏仁肉干脆片4件組ic (0) (0)
2013-04-18 芳第《High Tea》新茶感受 - 富貴慶典 牡丹蜜香紅茶 (2.5g x 15y (0) (0)
2013-04-16 御復珍營養食品杏仁+三寶黑豆粉ub (0) (0)
2013-04-16 【天使戀人】美麗四倍膠原飲-7盒組(50ml-42瓶)mx (0) (0)
2013-04-16 【SHILLS舒兒絲】搓掉黑穴角質雪泡 + 腋下除毛專用慕斯 + SPF50f (1) (0)
2013-04-16 北日本 Blanchul巧克力餅(171.6g)eg (0) (0)
2013-04-16 你滋美得 纖暢膠囊+新淨寶體驗組vi (0) (0)
1 2